Zurück zum Katalog

STARLINK-31265

AktivKommunikationVLEO
NORAD 59074·PAYLOAD·🇺🇸 United States

Gestartet Feb 29, 2024 von Cape Canaveral Space Force Station

Loading…

Nächste Überflüge (nächste 24 Stunden)

TLE

AktuellSource: CelesTrak SupGP

Epoche: Sep 14, 2026, 22:06 UTC

1 59074C 24041A   26257.92131944 -.00021243  00000+0 -76944-3 0  2574
2 59074  43.0008 322.0353 0001533 267.0093  31.1893 15.27588239    15

Verfolge STARLINK-31265 in Echtzeit mit AllMySat

Download on the App Store